Weather History for KBTR - March, 2013

Change the Weather History Date:

Wednesday, March 20, 2013

  Actual Average Record
Temperature  
Mean Temperature 59 °F 62 °F  
Max Temperature 71 °F 74 °F 90 °F (1921)
Min Temperature 47 °F 51 °F 27 °F (1965)
Degree Days  
Heating Degree Days 6 5  
Month to date heating degree days 184 126  
Since 1 July heating degree days 1356 1461  
Cooling Degree Days 0 2  
Month to date cooling degree days 14 33  
Year to date cooling degree days 39 64  
Growing Degree Days 12 (Base 50)    
Moisture  
Dew Point 35 °F    
Average Humidity 49    
Maximum Humidity 83    
Minimum Humidity 15    
Precipitation  
Precipitation 0.03 in 0.13 in 1.92 in (1943)
Month to date precipitation 2.37 2.80  
Year to date precipitation 24.41 13.56  
Snow  
Snow 0.00 in - - ()
Month to date snowfall 0.0  
Since 1 July snowfall 0.0  
Snow Depth 0.00 in    
Sea Level Pressure  
Sea Level Pressure 30.09 in    
Wind  
Wind Speed 5 mph (NNE)    
Max Wind Speed 16 mph    
Max Gust Speed 23 mph    
Visibility 10 miles    
Events Rain    
T = Trace of Precipitation, MM = Missing Value Source: NWS Daily Summary

Daily Weather History Graph

Daily Weather History Graph

Search for Another Location

Airport or City:

Trip Planner

Search our weather history database for the weather conditions in past years. The results will help you decide how hot, cold, wet, or windy it might be!

Date:

Astronomy

Mar. 20, 2013 Rise Set
Actual Time 7:08 AM CDT 7:16 PM CDT
Civil Twilight 6:44 AM CDT 7:40 PM CDT
Nautical Twilight 6:16 AM CDT 8:08 PM CDT
Astronomical Twilight 5:47 AM CDT 8:36 PM CDT
Moon 1:13 PM CDT (3/20) 2:25 AM CDT (3/20)
Length of Visible Light 12h 56m
Length of Day
12h 08m
First Quarter, 59% of the Moon is Illuminated
Mar 20
First Quarter
Mar 27
Full
Apr 2
Last Quarter
Apr 10
New
Apr 18
First Quarter

Hourly Weather History & Observations

Time (CDT) Temp. Dew Point Humidity Pressure Visibility Wind Dir Wind Speed Gust Speed Precip Events Conditions
12:53 AM 62.1 °F 45.0 °F 53% 30.02 in 10.0 mi ENE 11.5 mph - N/A   Overcast
1:53 AM 60.1 °F 39.9 °F 47% 30.02 in 10.0 mi East 8.1 mph - N/A   Overcast
2:53 AM 61.0 °F 37.0 °F 41% 30.01 in 10.0 mi NE 6.9 mph - N/A   Clear
3:53 AM 60.1 °F 37.9 °F 44% 30.02 in 10.0 mi North 5.8 mph - N/A   Clear
4:53 AM 57.9 °F 37.9 °F 47% 30.06 in 10.0 mi Calm Calm - N/A   Scattered Clouds
5:53 AM 57.9 °F 37.0 °F 46% 30.09 in 10.0 mi NNE 6.9 mph - N/A   Scattered Clouds
6:53 AM 57.0 °F 36.0 °F 45% 30.09 in 10.0 mi NNE 10.4 mph 17.3 mph N/A   Mostly Cloudy
7:53 AM 55.0 °F 37.9 °F 53% 30.16 in 10.0 mi Calm Calm - 0.00 in Rain Light Rain
8:53 AM 52.0 °F 46.9 °F 83% 30.16 in 10.0 mi East 3.5 mph - 0.03 in Rain Light Rain
9:53 AM 53.1 °F 45.0 °F 74% 30.17 in 10.0 mi Calm Calm - 0.00 in   Overcast
10:53 AM 54.0 °F 46.0 °F 75% 30.19 in 10.0 mi NNW 4.6 mph - N/A   Clear
11:43 AM 55.4 °F 44.6 °F 67% 30.18 in 1.8 mi North 5.8 mph - N/A   Haze
11:51 AM 55.4 °F 44.6 °F 67% 30.18 in 10.0 mi North 3.5 mph - N/A   Clear
11:53 AM 55.9 °F 44.1 °F 64% 30.18 in 10.0 mi North 3.5 mph - N/A   Clear
12:53 PM 63.0 °F 44.1 °F 50% 30.15 in 10.0 mi NNW 4.6 mph - N/A   Clear
1:53 PM 69.1 °F 41.0 °F 36% 30.12 in 10.0 mi Variable 4.6 mph - N/A   Clear
2:53 PM 71.1 °F 27.0 °F 19% 30.07 in 10.0 mi NNE 11.5 mph 21.9 mph N/A   Clear
3:53 PM 71.1 °F 28.9 °F 21% 30.05 in 10.0 mi North 6.9 mph - N/A   Clear
4:53 PM 70.0 °F 21.9 °F 16% 30.04 in 10.0 mi NNW 9.2 mph 19.6 mph N/A   Clear
5:53 PM 69.1 °F 19.9 °F 15% 30.04 in 10.0 mi North 10.4 mph - N/A   Clear
6:53 PM 64.9 °F 21.9 °F 19% 30.05 in 10.0 mi North 4.6 mph - N/A   Clear
7:53 PM 61.0 °F 23.0 °F 23% 30.06 in 10.0 mi North 3.5 mph - N/A   Clear
8:53 PM 57.9 °F 25.0 °F 28% 30.07 in 10.0 mi Calm Calm - N/A   Clear
9:53 PM 55.0 °F 24.1 °F 30% 30.08 in 10.0 mi NNE 3.5 mph - N/A   Clear
10:53 PM 53.1 °F 24.1 °F 32% 30.08 in 10.0 mi NE 3.5 mph - N/A   Clear
11:53 PM 50.0 °F 30.0 °F 46% 30.06 in 10.0 mi ENE 3.5 mph - N/A   Clear